| time (UTC) | temp F | wind direction | speed MPH | gust MPH | rain 1hr in | rain 24hr in | rain mn in | humidity % | barometer mb |
| 20260505153100 | 45 | 317 | 4.0 | 12.0 | 0.00 | 0.00 | 0.00 | 48 | 1010.7 |
| 20260505151558 | 44 | 30 | 2.0 | 12.0 | 0.00 | 0.00 | 0.00 | 51 | 1010.6 |
| 20260505130112 | 36 | 5 | 1.0 | 7.0 | 0.00 | 0.00 | 0.00 | 61 | 1009.9 |
| 20260505124617 | 35 | 264 | 2.0 | 7.0 | 0.00 | 0.00 | 0.00 | 63 | 1009.5 |
| 20260505123116 | 34 | 265 | 2.0 | 9.0 | 0.00 | 0.00 | 0.00 | 64 | 1009.4 |
| 20260505121601 | 33 | 0 | 2.0 | 7.0 | 0.00 | 0.00 | 0.00 | 66 | 1009.2 |
| 20260505120059 | 33 | 337 | 1.0 | 6.0 | 0.00 | 0.00 | 0.00 | 67 | 1009.0 |
| 20260505114614 | 32 | 0 | 0.0 | 3.0 | 0.00 | 0.00 | 0.00 | 67 | 1008.9 |
| 20260505113058 | 33 | 0 | 0.0 | 3.0 | 0.00 | 0.00 | 0.00 | 68 | 1008.8 |
| 20260505111609 | 33 | 0 | 0.0 | 2.0 | 0.00 | 0.00 | 0.00 | 69 | 1008.7 |
| 20260505101557 | 34 | 315 | 1.0 | 4.0 | 0.00 | 0.00 | 0.00 | 71 | 1008.2 |
| 20260505100100 | 35 | 0 | 0.0 | 4.0 | 0.00 | 0.00 | 0.00 | 71 | 1008.3 |
| 20260505094558 | 35 | 316 | 0.0 | 4.0 | 0.00 | 0.00 | 0.00 | 71 | 1008.2 |
| 20260505093058 | 35 | 0 | 1.0 | 6.0 | 0.00 | 0.00 | 0.00 | 70 | 1008.2 |
| 20260505091558 | 36 | 0 | 1.0 | 4.0 | 0.00 | 0.00 | 0.00 | 70 | 1008.1 |
| 20260505090101 | 36 | 0 | 1.0 | 8.0 | 0.00 | 0.00 | 0.00 | 70 | 1007.8 |
| 20260505084600 | 36 | 274 | 1.0 | 7.0 | 0.00 | 0.00 | 0.00 | 70 | 1007.7 |
| 20260505083118 | 36 | 313 | 2.0 | 7.0 | 0.00 | 0.00 | 0.00 | 70 | 1007.5 |
| 20260505081558 | 36 | 346 | 1.0 | 6.0 | 0.00 | 0.00 | 0.00 | 69 | 1007.4 |
| 20260505080057 | 36 | 0 | 1.0 | 7.0 | 0.00 | 0.00 | 0.00 | 68 | 1007.2 |
| 20260505074556 | 36 | 0 | 1.0 | 4.0 | 0.00 | 0.00 | 0.00 | 67 | 1007.3 |
| 20260505073106 | 37 | 0 | 1.0 | 3.0 | 0.00 | 0.00 | 0.00 | 66 | 1007.3 |
| 20260505071557 | 37 | 285 | 1.0 | 3.0 | 0.00 | 0.00 | 0.00 | 65 | 1007.2 |
| 20260505070058 | 38 | 262 | 0.0 | 3.0 | 0.00 | 0.00 | 0.00 | 64 | 1007.1 |
| 20260505064605 | 38 | 333 | 2.0 | 8.0 | 0.00 | 0.00 | 0.00 | 63 | 1007.2 |
| 20260505063056 | 38 | 296 | 1.0 | 5.0 | 0.00 | 0.00 | 0.00 | 62 | 1007.1 |
| 20260505061557 | 39 | 0 | 0.0 | 6.0 | 0.00 | 0.00 | 0.00 | 61 | 1007.1 |
| 20260505054604 | 40 | 0 | 2.0 | 4.0 | 0.00 | 0.00 | 0.00 | 59 | 1006.9 |
| 20260505053112 | 40 | 0 | 1.0 | 7.0 | 0.00 | 0.00 | 0.00 | 58 | 1006.8 |
| 20260505051605 | 40 | 293 | 2.0 | 7.0 | 0.00 | 0.00 | 0.00 | 57 | 1006.9 |
| 20260505041613 | 42 | 267 | 1.0 | 10.0 | 0.00 | 0.00 | 0.00 | 53 | 1006.5 |
| 20260505040059 | 42 | 311 | 2.0 | 8.0 | 0.00 | 0.00 | 0.00 | 53 | 1006.6 |
| 20260505034604 | 43 | 253 | 1.0 | 8.0 | 0.00 | 0.00 | 0.00 | 51 | 1006.4 |
| 20260505033059 | 43 | 300 | 1.0 | 7.0 | 0.00 | 0.00 | 0.00 | 50 | 1006.4 |
| 20260505031606 | 43 | 321 | 1.0 | 7.0 | 0.00 | 0.00 | 0.00 | 50 | 1006.2 |
| 20260505030058 | 44 | 267 | 1.0 | 8.0 | 0.00 | 0.00 | 0.00 | 50 | 1006.1 |
| 20260505024559 | 44 | 300 | 2.0 | 8.0 | 0.00 | 0.00 | 0.00 | 49 | 1006.0 |
| 20260505023101 | 45 | 261 | 3.0 | 9.0 | 0.00 | 0.00 | 0.00 | 49 | 1005.9 |
| 20260505021558 | 45 | 281 | 3.0 | 9.0 | 0.00 | 0.00 | 0.00 | 49 | 1005.7 |
| 20260505020057 | 46 | 263 | 2.0 | 9.0 | 0.00 | 0.00 | 0.00 | 49 | 1005.5 |
| 20260505014557 | 46 | 213 | 3.0 | 10.0 | 0.00 | 0.00 | 0.00 | 48 | 1005.3 |
| 20260505013101 | 47 | 333 | 2.0 | 9.0 | 0.00 | 0.00 | 0.00 | 47 | 1005.1 |
| 20260505011559 | 47 | 331 | 4.0 | 11.0 | 0.00 | 0.00 | 0.00 | 45 | 1004.9 |
| 20260505010056 | 47 | 306 | 3.0 | 12.0 | 0.00 | 0.00 | 0.00 | 45 | 1004.6 |
| 20260505004558 | 48 | 333 | 4.0 | 13.0 | 0.00 | 0.00 | 0.00 | 43 | 1004.5 |
| 20260505003057 | 48 | 255 | 7.0 | 16.0 | 0.00 | 0.00 | 0.00 | 42 | 1004.5 |
| 20260505001558 | 48 | 270 | 3.0 | 12.0 | 0.00 | 0.00 | 0.00 | 42 | 1004.4 |
| 20260505000107 | 49 | 46 | 4.0 | 15.0 | 0.00 | 0.00 | 0.00 | 41 | 1004.5 |
| 20260504234632 | 50 | 329 | 4.0 | 12.0 | 0.00 | 0.00 | 0.00 | 40 | 1004.4 |
| 20260504233100 | 50 | 317 | 4.0 | 15.0 | 0.00 | 0.00 | 0.00 | 41 | 1004.6 |
| 20260504231604 | 49 | 265 | 5.0 | 15.0 | 0.00 | 0.00 | 0.00 | 43 | 1004.3 |
| 20260504230100 | 50 | 275 | 7.0 | 17.0 | 0.00 | 0.00 | 0.00 | 42 | 1004.4 |
| 20260504224600 | 51 | 275 | 6.0 | 16.0 | 0.00 | 0.00 | 0.00 | 41 | 1004.0 |
| 20260504223057 | 51 | 275 | 7.0 | 15.0 | 0.00 | 0.00 | 0.00 | 42 | 1003.9 |
| 20260504221609 | 51 | 285 | 5.0 | 14.0 | 0.00 | 0.00 | 0.00 | 43 | 1003.6 |
| 20260504220058 | 53 | 339 | 7.0 | 14.0 | 0.00 | 0.00 | 0.00 | 39 | 1003.3 |
| 20260504214559 | 53 | 281 | 4.0 | 17.0 | 0.00 | 0.00 | 0.00 | 41 | 1003.1 |
| 20260504213059 | 53 | 289 | 4.0 | 13.0 | 0.00 | 0.00 | 0.00 | 41 | 1002.9 |
| 20260504211600 | 54 | 316 | 6.0 | 18.0 | 0.00 | 0.00 | 0.00 | 40 | 1002.8 |
| 20260504210110 | 54 | 278 | 6.0 | 15.0 | 0.00 | 0.00 | 0.00 | 41 | 1002.6 |
| 20260504204605 | 53 | 318 | 6.0 | 14.0 | 0.00 | 0.00 | 0.00 | 41 | 1002.6 |
| 20260504203104 | 53 | 325 | 6.0 | 15.0 | 0.00 | 0.00 | 0.00 | 40 | 1002.4 |
| 20260504201556 | 54 | 275 | 6.0 | 17.0 | 0.00 | 0.00 | 0.00 | 42 | 1002.3 |
| 20260504200100 | 55 | 323 | 5.0 | 15.0 | 0.00 | 0.00 | 0.00 | 44 | 1002.3 |
| 20260504194609 | 55 | 269 | 6.0 | 17.0 | 0.00 | 0.00 | 0.00 | 42 | 1002.0 |
| 20260504193058 | 55 | 335 | 6.0 | 19.0 | 0.00 | 0.00 | 0.00 | 41 | 1001.8 |
| 20260504191558 | 55 | 259 | 4.0 | 14.0 | 0.00 | 0.00 | 0.00 | 46 | 1001.7 |
| 20260504190128 | 55 | 302 | 5.0 | 19.0 | 0.00 | 0.00 | 0.00 | 44 | 1001.5 |
| 20260504184559 | 56 | 315 | 4.0 | 15.0 | 0.00 | 0.00 | 0.00 | 43 | 1001.0 |
| 20260504183058 | 56 | 17 | 7.0 | 15.0 | 0.00 | 0.00 | 0.00 | 44 | 1001.1 |
| 20260504181600 | 57 | 303 | 6.0 | 13.0 | 0.00 | 0.00 | 0.00 | 45 | 1000.7 |
| 20260504180155 | 56 | 264 | 5.0 | 16.0 | 0.00 | 0.00 | 0.00 | 44 | 1000.5 |
| 20260504174600 | 55 | 310 | 5.0 | 18.0 | 0.00 | 0.00 | 0.00 | 48 | 1000.5 |
| 20260504173120 | 56 | 315 | 8.0 | 19.0 | 0.00 | 0.00 | 0.00 | 46 | 1000.2 |
| 20260504171558 | 56 | 352 | 4.0 | 20.0 | 0.00 | 0.00 | 0.00 | 47 | 1000.2 |